sat.trackr.live / text

‹ back to catalog

STARLINK-34925

NORAD 65249 · 2025-179Q

PAYLOAD ACTIVE UNKNOWN

§ Identity

Operator
Country
US
Launch date
2025-08-18
Launch site
AFWTR
Launch vehicle
Mass (kg)
RCS (m²)

Purposes: comms

External: N2YO · Heavens-Above · Gunter

§ Orbital elements

Epoch: 2026-09-20T13:42:44.104320Z

Period
93.91 min
Inclination
97.2827°
Eccentricity
0.0000480
Mean motion
15.33448632 rev/d
Perigee alt
465.2 km
Apogee alt
465.9 km
Semi-major
6,843.7 km
B*
5.0149e-4
RAAN
302.8949°
Arg perigee
158.5110°
Mean anomaly
201.6153°
Rev number
6,132

§ Raw data

STARLINK-349251 65249U 25179Q   26263.57134380  .00016151  00000+0  50149-3 0  99952 65249  97.2827 302.8949 0000480 158.5110 201.6153 15.33448632 61320

JSON: /api/v1/satellites/65249 · /tle

For live sub-satellite position, see the globe view (requires WebGL).

§ Visibility from observer

Set your observer location to see the next 7 days of passes ≥ 10°. The values pass through the URL so the page stays shareable.

No JS? Fill the form by hand. The geolocation button needs JavaScript.